View from above orbital plane
|
View from above satellite
|
Ground track
|
The orbit data is extracted from the following two-line orbital elements,
1 15369U 84111A 21060.53946900 .00001110 00000-0 54448-4 0 9996
2 15369 82.5262 229.7824 0016023 238.5711 121.3956 15.16985964985546
Epoch (UTC): | 01 March 2021 12:56:50 |
Eccentricity: | 0.0016023 |
inclination: | 82.5262° |
perigee height: | 504 km |
apogee height: | 526 km |
right ascension of ascending node: | 229.7824° |
argument of perigee: | 238.5711° |
revolutions per day: | 15.16985964 |
mean anomaly at epoch: | 121.3956° |
orbit number at epoch: | 98554 |
The dashed part of the orbit path shows where the satellite is in the earth's shadow,
|
|